{"data":{"norad_id":50848,"epoch":"2026-05-25T03:57:29.869920Z","epoch_age_seconds":59979,"freshness":"FRESH","line1":"1 50848U 22001AX  26145.16492905 -.00000726  00000+0 -27521-4 0  9991","line2":"2 50848  53.2128 195.8117 0001217  84.7116 275.4015 15.08837607241813","mean_motion":15.08837607,"eccentricity":0.0001217,"inclination_deg":53.2128,"raan_deg":195.8117,"arg_perigee_deg":84.7116,"mean_anomaly_deg":275.4015,"bstar":-2.7521e-5,"rev_number":24181,"period_min":95.437706040687,"perigee_km":538.90879648393,"apogee_km":540.59261035094,"semimajor_km":6917.8877034174,"source":"CELESTRAK","updated_at":"2026-05-25T13:38:16.883303Z"}}